Location: Brunembert
(50.7122°N, 1.8935°E)
Time: 15:30:20
(UTC+00:00)

X-37B - Pass Details

Date: 29 September 2021
Orbit: 385 x 389 km, 45.0° (Epoch: 17 October)

Event Time Altitude Azimuth Distance (km) Brightness Sun altitude
Exits shadow 04:35:01 20° 228° (SW) 974 2.1 -12.6°
Maximum altitude 04:36:22 27° 188° (S) 783 1.9 -12.4°
Drops below altitude 10° 04:39:08 10° 128° (SE) 1,413 4.0 -12.0°
Sets 04:41:22 0° 115° (ESE) 2,268 5.4 -11.6°
